Location: Newark
(37.9717°N, 99.9089°W)
Time: 06:15:31
(UTC+00:00)

OTV 5 (USA 277) - Pass Details

Date: 26 August 2019
Orbit: 295 x 339 km, 54.5° (Epoch: 08 September)

Event Time Altitude Azimuth Distance (km) Brightness Sun altitude
Rises 03:16:56 0° 273° (W) 1,998 ? -21.9°
Reaches altitude 10° 03:20:21 10° 322° (NW) 1,168 ? -22.5°
Maximum altitude 03:20:43 10° 330° (NNW) 1,156 ? -22.5°
Drops below altitude 10° 03:21:05 10° 338° (NNW) 1,167 ? -22.6°
Enters shadow 03:22:43 - 9° (N) 1,439 ? -22.9°
